User: anonymous   Login
Location: Norwich
(52.6280°N, 1.3030°E)
Time: 22:34:02
(UTC+00:00)
Language:

Meteor 1-22 Rocket - Orbit

View from above orbital plane
View from above orbital plane
View from above satellite
View from above satellite

Ground track
Ground track

The orbit data is extracted from the following two-line orbital elements,

1 08294U 75087B   17352.54908496  .00000093  00000-0  44890-4 0  9994
2 08294  81.2150 202.8367 0105279 242.1328 116.9146 14.08609092170797
Epoch (UTC): 18 December 2017 13:10:40
Eccentricity: 0.0105279
inclination: 81.2150°
perigee height: 788 km
apogee height: 940 km
right ascension of ascending node: 202.8367°
argument of perigee: 242.1328°
revolutions per day: 14.08609092
mean anomaly at epoch: 116.9146°
orbit number at epoch: 17079

The dashed part of the orbit path shows where the satellite is in the earth's shadow,  

DLR